Tracking 31027 objects as of 19-Jul-2025
HD Live streaming from Space Station
objects crossing your sky now

COSMOS 2251 DEB

Track COSMOS 2251 DEB now!
10-day predictions


NORAD ID: 35890
Int'l Code: 1993-036AUD
Perigee: 675.5 km
Apogee: 760.7 km
Inclination: 73.9 °
Period: 99.0 minutes
Semi major axis: 7089 km
RCS: 0.0103 m2 (small)
Launch date: June 16, 1993
Source: Commonwealth of Independent States (former USSR) (CIS)
Launch site: PLESETSK MISSILE AND SPACE COMPLEX (PKMTR)

Note: This is SATELLITE DEBRIS
Your satellite tracking list
KL-BETA B
Track 1 satellite(s)




NASA's NSSDC Master Catalog

Two Line Element Set (TLE):
1 35890U 93036AUD 25198.19585883  .00005709  00000-0  13136-2 0  9995
2 35890  73.9369 165.9720 0060092 322.2098  37.4851 14.54515691629890
Source of the keplerian elements: AFSPC